IRS P4 (OCEANSAT 1)

Satellite information

Favourite Embed

Satellite Type and Status

PAYLOADIN ORBIT

Key statistics

Satellite IRS P4 (OCEANSAT 1) at a glance.

Uptime

9479

Days in orbit

Revolutions

≈ 14.5

Per day

Orbit

SSO

Sun Synchronous Orbit

Inclination

97.9

Latest

Satellite identification and parameters

Extended collection of information and parameters for IRS P4 (OCEANSAT 1).

Object identification

Identified? True

Debris? False

Object name: IRS P4 (OCEANSAT 1)

International designator: 1999-029C

Object number (NORAD): 25758

Object ID (CCSDS): 25758

Country: INDIA (IND)

Current information (Y/N): Y

RCS size: LARGE

Orbital parameters

Period: 98.985 minutes

Inclination: 97.9242 deg

SMA: 7088.275 km

Apoapsis: 712.028 km

Periapsis: 708.252 km

RAAN: 115.6764 deg

Eccentricy: 0.0002664

Argument of periapsis: 5.948 deg

Mean anomaly: 354.1749 deg

Mean motion: 14.54761881 rev/day

Mean motion (dot): 0.00000656 rev/day2

B* drag term: 0.00016301 1/REarth

Two-line elements (TLE)

Creation date: May 8, 2025, 3:01 a.m.

Reference frame: TEME

Reference center: EARTH

Epoch: May 7, 2025, 8:32 p.m. UTC

TLE line 0: 0 IRS P4 (OCEANSAT 1)

TLE line 1: 1 25758U 99029C 25127.85599326 .00000656 00000-0 16301-3 0 9991

TLE line 2: 2 25758 97.9242 115.6764 0002664 5.9480 354.1749 14.54761881375177

Live tracking on map

Real-time ground track for satellite IRS P4 (OCEANSAT 1).

In-orbit conjunctions

A list of the most updated potential collisions computed for object IRS P4 (OCEANSAT 1).

Target Orbit TCA Probability of collision Miss distance Type
COSMOS 2251 DEB LEO 2024-11-02 18:53:31 0.0004088931 104.0 (m) DEBRIS
SL-16 DEB LEO 2024-06-02 22:49:58 0.0001203113 253.0 (m) DEBRIS

Associated space launch

IRS-P4 (Indian Remote Sensing Satellite) or Oceansat is the first indian satellite primarily built for Ocean applications. Kitsat (Korean Institute of Technology Satellite 3), renamed on orbit as Uribyol 3, was the first Korean satellite in true sense and was launched by an Indian PSLV-G (2) rocket in May 1999.

IRS P4 (OCEANSAT 1) was lifted into orbit during the mission ‘PSLV | IRS-P4 & Uribyol-3’, on board a PSLV space rocket.

The launch took place on May 26, 1999, 6:22 a.m. from Satish Dhawan Space Centre First Launch Pad.

For more information about the launch, click the button.

Launch to space PSLV | IRS-P4 & Uribyol-3
PSLV | IRS-P4 & Uribyol-3

Agency: N/A

Status: Launch Successful

Launch date: May 26, 1999, 6:22 a.m. UTC

Rocket: PSLV

Launch pad: Satish Dhawan Space Centre First Launch Pad

Location: Satish Dhawan Space Centre, India

...

Latest news about this satellite

There are no fresh news available about this satellite. Check back as we update our databases every day.


Newsletter sign-up

Weekly statistics, charts and insights to help you stay on top of the space industry.